Location: Contre
(49.7477°N, 2.0963°E)
Time: 11:41:59
(UTC+00:00)

Meteor 2-12 Rocket - Pass Details

Date: 15 November 2025
Orbit: 935 x 957 km, 82.5° (Epoch: 05 December)

Event Time Altitude Azimuth Distance (km) Brightness Sun altitude
Rises 17:55:27 0° 348° (NNW) 3,631 7.5 -17.2°
Reaches altitude 10° 17:57:58 10° 347° (NNW) 2,678 6.9 -17.6°
Maximum altitude 18:04:03 74° 264° (W) 984 4.6 -18.6°
Drops below altitude 10° 18:10:05 10° 180° (S) 2,645 6.8 -19.5°
Sets 18:12:33 0° 179° (S) 3,583 7.5 -19.9°
